Flag for Germany Weather past 2 weeks in Görlitz, Saxony, Germany

Now
47 °F

Overcast.


Feels Like: 44 °F
Forecast: 43 / 53 °F
Wind: 7 mph from Southwest

Location: Goerlitz

Current Time: Dec 18, 2014 at 5:42:32 PM

Latest Report: Dec 18, 2014 at 5:00 PM


Visibility: 11 mi

Pressure: 29.86 "Hg

Humidity: 90%

Dew point: 44 °F

Location of GörlitzLocation

Historic Weather in Görlitz — Graph

°F

Görlitz temperature yesterday

Maximum temperature yesterday: 39 °F (at 12:00 PM)
Minimum temperature yesterday: 33 °F (at 8:00 AM)
Average temperature yesterday: 37 °F

Past Weeks' High & Low Weather Summary

 TemperatureHumidityPressure
High47 °F (Dec 12, 11:00 PM)99% (Dec 6, 5:00 AM)30.46 "Hg (Dec 6, 5:00 AM)
Low24 °F (Dec 9, 8:00 AM)68% (Dec 12, 10:00 PM)29.58 "Hg (Dec 12, 9:00 PM)
Average38 °F90%30.02 "Hg
* Reported Dec 3 4:00 PM — Dec 18 4:00 PM, Görlitz, Weather by CustomWeather, © 2014

Note: Actual official high and low records may vary slightly from our data, if they occured in-between our weather recording intervals... More about our weather records

Advertising

Görlitz weather history for previous 24 hours

 ConditionsComfort  
Time TempWeatherWind HumidityBarometerVisibility
4:00 PM
Dec 18
47 °FOvercast.7 mph91%29.86 "Hg7 mi
3:00 PM47 °FLight rain. Overcast.7 mph89%29.87 "Hg11 mi
2:00 PM47 °FOvercast.5 mph88%29.87 "Hg14 mi
1:00 PM46 °FOvercast.7 mph89%29.88 "Hg12 mi
12:00 PM46 °FOvercast.7 mph88%29.90 "Hg11 mi
11:00 AM45 °FOvercast.8 mph87%29.89 "Hg14 mi
10:00 AM44 °FOvercast.6 mph89%29.91 "Hg16 mi
9:00 AM44 °FOvercast.6 mph87%29.90 "Hg17 mi
8:00 AM44 °FOvercast.5 mph89%29.87 "Hg19 mi
7:00 AM44 °FOvercast.5 mph87%29.86 "Hg25 mi
6:00 AM44 °FOvercast.6 mph87%29.85 "Hg25 mi
5:00 AM44 °FOvercast.6 mph88%29.84 "Hg22 mi
4:00 AM43 °FLight rain. Low clouds.6 mph92%29.81 "Hg12 mi
3:00 AM40 °FDrizzle. Low clouds.6 mph96%29.81 "Hg7 mi
2:00 AM39 °FRain. Low clouds.7 mph97%29.78 "Hg2 mi
1:00 AM38 °FLight rain. Low clouds.7 mph96%29.77 "Hg2 mi
12:00 AM38 °FLight rain. Overcast.7 mph95%29.77 "Hg9 mi
11:00 PM
Dec 17
38 °FOvercast.7 mph90%29.75 "Hg11 mi
10:00 PM37 °FOvercast.7 mph90%29.75 "Hg9 mi
9:00 PM37 °FLight rain. Overcast.9 mph90%29.73 "Hg9 mi
8:00 PM37 °FOvercast.9 mph88%29.73 "Hg12 mi
7:00 PM37 °FOvercast.12 mph88%29.72 "Hg11 mi
6:00 PM37 °FLight rain. Overcast.9 mph85%29.74 "Hg11 mi
5:00 PM39 °FOvercast.9 mph75%29.75 "Hg12 mi
Weather by CustomWeather, © 2014

See weather overviewHow to use our weather pages